Weather History for Miami, FL

Change the Weather History Date:

Monday, March 11, 2013

  Actual Average Record
Temperature  
Mean Temperature 74 °F 72 °F  
Max Temperature 79 °F 80 °F 88 °F (1948)
Min Temperature 69 °F 64 °F 44 °F (1924)
Degree Days  
Heating Degree Days 0 0  
Month to date heating degree days 24 8  
Since 1 July heating degree days 60 124  
Cooling Degree Days 9 8  
Month to date cooling degree days 21 80  
Year to date cooling degree days 500 402  
Growing Degree Days 22 (Base 50)    
Moisture  
Dew Point 59 °F    
Average Humidity 64    
Maximum Humidity 73    
Minimum Humidity 54    
Precipitation  
Precipitation 0.00 in 0.10 in 4.11 in (1921)
Month to date precipitation T 0.95  
Year to date precipitation 2.39 4.82  
Snow  
Snow 0.00 in - - ()
Month to date snowfall 0.0  
Since 1 July snowfall 0.0  
Snow Depth 0.00 in    
Sea Level Pressure  
Sea Level Pressure 30.04 in    
Wind  
Wind Speed 11 mph (ESE)    
Max Wind Speed 20 mph    
Max Gust Speed 26 mph    
Visibility 10 miles    
Events      
T = Trace of Precipitation, MM = Missing Value Source: NWS Daily Summary

Daily Weather History Graph

Daily Weather History Graph

Search for Another Location

Airport:

Trip Planner

Search our weather history database for the weather conditions in past years. The results will help you decide how hot, cold, wet, or windy it might be!

Date:

Astronomy

Mar. 11, 2013 Rise Set
Actual Time 7:34 AM EDT 7:28 PM EDT
Civil Twilight 7:11 AM EDT 7:51 PM EDT
Nautical Twilight 6:44 AM EDT 8:17 PM EDT
Astronomical Twilight 6:18 AM EDT 8:44 PM EDT
Moon 7:09 AM EDT (3/11) 7:32 PM EDT (3/11)
Length of Visible Light 12h 39m
Length of Day
11h 53m
Waning Crescent, 0% of the Moon is Illuminated
Mar 11
Waning Crescent
Mar 11
New
Mar 19
First Quarter
Mar 27
Full
Apr 3
Last Quarter

Hourly Weather History & Observations

Time (EDT) Temp. Dew Point Humidity Pressure Visibility Wind Dir Wind Speed Gust Speed Precip Events Conditions
12:53 AM 71.1 °F 59.0 °F 66% 30.10 in 10.0 mi ESE 10.4 mph - 0.00 in   Mostly Cloudy
1:53 AM 69.1 °F 57.9 °F 68% 30.09 in 10.0 mi ESE 10.4 mph - N/A   Mostly Cloudy
2:53 AM 70.0 °F 59.0 °F 68% 30.07 in 10.0 mi ESE 10.4 mph - N/A   Mostly Cloudy
3:53 AM 70.0 °F 59.0 °F 68% 30.05 in 10.0 mi East 10.4 mph - N/A   Mostly Cloudy
4:53 AM 70.0 °F 59.0 °F 68% 30.03 in 10.0 mi ESE 11.5 mph - N/A   Mostly Cloudy
5:53 AM 70.0 °F 57.9 °F 65% 30.03 in 10.0 mi East 12.7 mph - N/A   Overcast
6:53 AM 70.0 °F 57.9 °F 65% 30.03 in 10.0 mi ESE 12.7 mph - N/A   Overcast
7:53 AM 70.0 °F 57.9 °F 65% 30.04 in 10.0 mi ESE 11.5 mph - N/A   Mostly Cloudy
8:53 AM 71.1 °F 57.9 °F 63% 30.06 in 10.0 mi ESE 12.7 mph - N/A   Mostly Cloudy
9:53 AM 73.0 °F 59.0 °F 61% 30.07 in 10.0 mi ESE 16.1 mph - N/A   Mostly Cloudy
10:53 AM 73.9 °F 60.1 °F 62% 30.07 in 10.0 mi ESE 15.0 mph - N/A   Mostly Cloudy
11:53 AM 77.0 °F 60.1 °F 56% 30.06 in 10.0 mi SE 15.0 mph 24.2 mph N/A   Mostly Cloudy
12:53 PM 75.9 °F 59.0 °F 56% 30.06 in 10.0 mi SE 12.7 mph 21.9 mph N/A   Mostly Cloudy
1:53 PM 77.0 °F 59.0 °F 54% 30.04 in 10.0 mi SE 15.0 mph 23.0 mph N/A   Mostly Cloudy
2:53 PM 77.0 °F 59.0 °F 54% 30.04 in 10.0 mi ESE 11.5 mph 20.7 mph N/A   Mostly Cloudy
3:53 PM 75.0 °F 59.0 °F 57% 30.03 in 10.0 mi SE 10.4 mph 20.7 mph N/A   Mostly Cloudy
4:53 PM 75.9 °F 60.1 °F 58% 30.02 in 10.0 mi ESE 15.0 mph 19.6 mph N/A   Mostly Cloudy
5:53 PM 75.0 °F 60.1 °F 60% 29.99 in 10.0 mi ESE 15.0 mph 19.6 mph N/A   Scattered Clouds
6:53 PM 73.9 °F 61.0 °F 64% 29.98 in 10.0 mi SE 12.7 mph 21.9 mph N/A   Scattered Clouds
7:53 PM 72.0 °F 60.1 °F 66% 29.99 in 10.0 mi SE 8.1 mph - N/A   Scattered Clouds
8:53 PM 71.1 °F 61.0 °F 70% 30.00 in 10.0 mi ESE 4.6 mph - N/A   Partly Cloudy
9:53 PM 70.0 °F 61.0 °F 73% 30.02 in 10.0 mi ESE 5.8 mph - N/A   Partly Cloudy
10:53 PM 70.0 °F 61.0 °F 73% 30.03 in 10.0 mi ESE 5.8 mph - N/A   Partly Cloudy
11:53 PM 70.0 °F 61.0 °F 73% 30.01 in 10.0 mi ESE 6.9 mph - N/A   Scattered Clouds